TimeCST,TemperatureF,Dew PointF,Humidity,Sea Level PressureIn,VisibilityMPH,Wind Direction,Wind SpeedMPH,Gust SpeedMPH,PrecipitationIn,Events,Conditions,WindDirDegrees,DateUTC
12:12 AM,10.4,1.4,67,30.13,10.0,Calm,Calm,-,N/A,,Overcast,0,2013-03-03 06:12:00
12:32 AM,10.4,3.2,73,30.13,10.0,Calm,Calm,-,N/A,,Overcast,0,2013-03-03 06:32:00
12:52 AM,10.4,3.2,73,30.13,10.0,Calm,Calm,-,N/A,,Overcast,0,2013-03-03 06:52:00
1:32 AM,10.4,3.2,73,30.12,10.0,Calm,Calm,-,N/A,,Overcast,0,2013-03-03 07:32:00
1:52 AM,10.4,3.2,73,30.11,10.0,Calm,Calm,-,N/A,,Mostly Cloudy,0,2013-03-03 07:52:00
2:12 AM,10.4,3.2,73,30.11,10.0,Calm,Calm,-,N/A,,Mostly Cloudy,0,2013-03-03 08:12:00
2:32 AM,10.4,3.2,73,30.11,10.0,Calm,Calm,-,N/A,,Scattered Clouds,0,2013-03-03 08:32:00
2:53 AM,8.6,1.4,73,30.11,10.0,Calm,Calm,-,N/A,,Scattered Clouds,0,2013-03-03 08:53:00
3:12 AM,8.6,3.2,79,30.11,10.0,Calm,Calm,-,N/A,,Scattered Clouds,0,2013-03-03 09:12:00
3:32 AM,8.6,3.2,79,30.11,10.0,Calm,Calm,-,N/A,,Mostly Cloudy,0,2013-03-03 09:32:00
3:52 AM,8.6,1.4,73,30.10,10.0,Calm,Calm,-,N/A,,Overcast,0,2013-03-03 09:52:00
4:12 AM,8.6,1.4,73,30.10,10.0,Calm,Calm,-,N/A,,Overcast,0,2013-03-03 10:12:00
4:32 AM,8.6,3.2,79,30.10,10.0,Calm,Calm,-,N/A,,Overcast,0,2013-03-03 10:32:00
4:52 AM,8.6,1.4,73,30.10,10.0,Calm,Calm,-,N/A,,Overcast,0,2013-03-03 10:52:00
5:12 AM,8.6,1.4,73,30.10,10.0,Calm,Calm,-,N/A,,Overcast,0,2013-03-03 11:12:00
5:52 AM,8.6,1.4,73,30.11,10.0,Calm,Calm,-,N/A,,Overcast,0,2013-03-03 11:52:00
6:12 AM,10.4,1.4,67,30.11,10.0,Calm,Calm,-,N/A,,Overcast,0,2013-03-03 12:12:00
6:52 AM,10.4,1.4,67,30.10,7.0,Calm,Calm,-,N/A,,Overcast,0,2013-03-03 12:52:00
7:12 AM,10.4,1.4,67,30.10,7.0,Calm,Calm,-,N/A,,Overcast,0,2013-03-03 13:12:00
7:32 AM,10.4,1.4,67,30.10,7.0,Calm,Calm,-,N/A,,Overcast,0,2013-03-03 13:32:00
7:52 AM,10.4,1.4,67,30.10,7.0,Calm,Calm,-,N/A,,Overcast,0,2013-03-03 13:52:00
8:12 AM,12.2,1.4,62,30.10,10.0,Calm,Calm,-,N/A,,Overcast,0,2013-03-03 14:12:00
8:33 AM,14.0,1.4,57,30.11,10.0,Calm,Calm,-,N/A,,Overcast,0,2013-03-03 14:33:00
8:52 AM,17.6,-2.2,42,30.10,10.0,Calm,Calm,-,N/A,,Overcast,0,2013-03-03 14:52:00
9:12 AM,19.4,-5.8,33,30.10,10.0,Calm,Calm,-,N/A,,Overcast,0,2013-03-03 15:12:00
9:32 AM,21.2,-7.6,28,30.09,10.0,Calm,Calm,-,N/A,,Overcast,0,2013-03-03 15:32:00
9:52 AM,23.0,-13.0,20,30.09,10.0,Calm,Calm,-,N/A,,Scattered Clouds,0,2013-03-03 15:52:00
10:12 AM,26.6,-18.4,13,30.08,10.0,ESE,3.5,-,N/A,,Clear,120,2013-03-03 16:12:00
10:32 AM,26.6,-18.4,13,30.08,10.0,Calm,Calm,-,N/A,,Clear,0,2013-03-03 16:32:00
10:52 AM,28.4,-20.2,11,30.07,10.0,Calm,Calm,-,N/A,,Scattered Clouds,0,2013-03-03 16:52:00
11:12 AM,28.4,-18.4,12,30.07,10.0,Calm,Calm,-,N/A,,Mostly Cloudy,0,2013-03-03 17:12:00
11:32 AM,30.2,-20.2,10,30.07,10.0,ESE,8.1,-,N/A,,Overcast,120,2013-03-03 17:32:00
11:52 AM,32.0,-18.4,11,30.06,10.0,Calm,Calm,-,N/A,,Mostly Cloudy,0,2013-03-03 17:52:00
12:12 PM,32.0,-16.6,12,30.05,10.0,Calm,Calm,-,N/A,,Scattered Clouds,0,2013-03-03 18:12:00
12:32 PM,32.0,-16.6,12,30.04,10.0,Calm,Calm,-,N/A,,Clear,0,2013-03-03 18:32:00
12:52 PM,32.0,-16.6,12,30.03,10.0,Calm,Calm,-,N/A,,Clear,0,2013-03-03 18:52:00
1:12 PM,32.0,-14.8,13,30.02,10.0,ESE,3.5,-,N/A,,Clear,120,2013-03-03 19:12:00
1:32 PM,32.0,-14.8,13,30.01,10.0,Calm,Calm,-,N/A,,Clear,0,2013-03-03 19:32:00
1:52 PM,32.0,-14.8,13,30.01,10.0,Calm,Calm,-,N/A,,Clear,0,2013-03-03 19:52:00
2:32 PM,32.0,-16.6,12,30.00,10.0,Calm,Calm,-,N/A,,Overcast,0,2013-03-03 20:32:00
2:52 PM,32.0,-16.6,12,30.00,10.0,Calm,Calm,-,N/A,,Overcast,0,2013-03-03 20:52:00
3:32 PM,32.0,-14.8,13,29.99,10.0,Calm,Calm,-,N/A,,Overcast,0,2013-03-03 21:32:00
3:52 PM,32.0,-13.0,14,29.99,10.0,Calm,Calm,-,N/A,,Overcast,0,2013-03-03 21:52:00
4:12 PM,32.0,-13.0,14,29.99,10.0,Calm,Calm,-,N/A,,Overcast,0,2013-03-03 22:12:00
4:32 PM,32.0,-11.2,15,29.99,10.0,Calm,Calm,-,N/A,,Overcast,0,2013-03-03 22:32:00
4:52 PM,32.0,-11.2,15,29.99,10.0,Calm,Calm,-,N/A,,Overcast,0,2013-03-03 22:52:00
5:12 PM,30.2,3.2,32,29.99,10.0,Calm,Calm,-,N/A,,Overcast,0,2013-03-03 23:12:00
5:32 PM,28.4,3.2,34,30.00,10.0,Calm,Calm,-,N/A,,Overcast,0,2013-03-03 23:32:00
5:52 PM,28.4,5.0,37,30.00,10.0,Calm,Calm,-,N/A,,Overcast,0,2013-03-03 23:52:00
6:12 PM,26.6,8.6,47,30.00,10.0,Calm,Calm,-,N/A,,Overcast,0,2013-03-04 00:12:00
6:33 PM,26.6,10.4,51,30.01,10.0,Calm,Calm,-,N/A,,Overcast,0,2013-03-04 00:33:00
6:52 PM,26.6,10.4,51,30.02,10.0,Calm,Calm,-,N/A,,Overcast,0,2013-03-04 00:52:00
7:12 PM,24.8,10.4,54,30.02,10.0,Calm,Calm,-,N/A,,Overcast,0,2013-03-04 01:12:00
7:32 PM,24.8,12.2,59,30.02,10.0,Calm,Calm,-,N/A,,Overcast,0,2013-03-04 01:32:00
7:52 PM,23.0,12.2,63,30.01,10.0,Calm,Calm,-,N/A,,Overcast,0,2013-03-04 01:52:00
8:12 PM,23.0,12.2,63,30.01,10.0,Calm,Calm,-,N/A,,Overcast,0,2013-03-04 02:12:00
8:32 PM,23.0,12.2,63,30.01,10.0,Calm,Calm,-,N/A,,Overcast,0,2013-03-04 02:32:00
8:52 PM,23.0,12.2,63,30.01,10.0,Calm,Calm,-,N/A,,Overcast,0,2013-03-04 02:52:00
9:12 PM,23.0,10.4,59,30.02,10.0,Calm,Calm,-,N/A,,Overcast,0,2013-03-04 03:12:00
9:32 PM,23.0,10.4,59,30.02,10.0,Calm,Calm,-,N/A,,Mostly Cloudy,0,2013-03-04 03:32:00
9:53 PM,21.2,8.6,58,30.01,10.0,Calm,Calm,-,N/A,,Overcast,0,2013-03-04 03:53:00
10:12 PM,21.2,8.6,58,30.01,10.0,Calm,Calm,-,N/A,,Overcast,0,2013-03-04 04:12:00
10:32 PM,21.2,5.0,50,30.01,10.0,Calm,Calm,-,N/A,,Overcast,0,2013-03-04 04:32:00
10:52 PM,21.2,5.0,50,30.01,10.0,Calm,Calm,-,N/A,,Overcast,0,2013-03-04 04:52:00
11:12 PM,21.2,5.0,50,30.01,10.0,Calm,Calm,-,N/A,,Overcast,0,2013-03-04 05:12:00
11:32 PM,19.4,5.0,54,30.01,10.0,Calm,Calm,-,N/A,,Overcast,0,2013-03-04 05:32:00
11:52 PM,19.4,5.0,54,30.01,10.0,Calm,Calm,-,N/A,,Overcast,0,2013-03-04 05:52:00